EW7678 Weather Reports


Display with metric or nautical units.
time (UTC)temp
F
wind
direction
speed
MPH
gust
MPH
rain 1hr
in
rain 24hr
in
rain mn
in
humidity
%
barometer
mb
20260502220022 81 115 0.0 5.0 0.00 0.00 0.00 21 1015.8
20260502214516 81 119 3.0 6.0 0.00 0.00 0.00 22 1016.1
20260502213012 81 229 1.0 5.0 0.00 0.00 0.00 22 1016.3
20260502211519 81 340 1.0 4.0 0.00 0.00 0.00 23 1016.4
20260502210008 80 122 1.0 5.0 0.00 0.00 0.00 25 1016.6
20260502204505 79 96 2.0 4.0 0.00 0.00 0.00 24 1016.8
20260502203113 78 129 1.0 4.0 0.00 0.00 0.00 25 1017.1
20260502201557 77 138 1.0 4.0 0.00 0.00 0.00 27 1017.3
20260502200054 76 80 1.0 4.0 0.00 0.00 0.00 31 1017.5
20260502194551 74 124 1.0 4.0 0.00 0.00 0.00 33 1017.8
20260502193049 74 24 1.0 3.0 0.00 0.00 0.00 34 1018.1
20260502191546 73 124 1.0 4.0 0.00 0.00 0.00 35 1018.3
20260502190046 72 138 0.0 3.0 0.00 0.00 0.00 37 1018.4
20260502184541 71 120 0.0 3.0 0.00 0.00 0.00 39 1018.6
20260502183038 69 120 1.0 3.0 0.00 0.00 0.00 39 1018.8
20260502181532 68 58 0.0 3.0 0.00 0.00 0.00 40 1019.0
20260502163016 62 90 1.0 5.0 0.00 0.00 0.00 48 1019.7
20260502161513 63 288 0.0 4.0 0.00 0.00 0.00 50 1019.7
20260502151611 57 82 0.0 3.0 0.00 0.00 0.00 62 1019.8
20260502150108 54 310 0.0 2.0 0.00 0.00 0.00 66 1019.8
20260502123032 37 212 0.0 0.0 0.00 0.00 0.00 92 1018.9
20260502121542 37 212 0.0 0.0 0.00 0.00 0.00 91 1018.9
20260502114526 38 212 0.0 0.0 0.00 0.00 0.00 91 1018.6
20260502113024 38 212 0.0 0.0 0.00 0.00 0.00 90 1018.4
20260502111520 38 212 0.0 0.0 0.00 0.00 0.00 91 1018.3
20260502110021 39 212 0.0 0.0 0.00 0.00 0.00 91 1018.2
20260502104536 39 212 0.0 0.0 0.00 0.00 0.00 90 1018.2
20260502103015 39 212 0.0 0.0 0.00 0.00 0.00 89 1018.2
20260502101512 40 212 0.0 0.0 0.00 0.00 0.00 90 1018.1
20260502091509 41 212 0.0 0.0 0.00 0.00 0.00 87 1017.5
20260502090107 42 212 0.0 0.0 0.00 0.00 0.00 89 1017.5
20260502070042 45 212 0.0 0.0 0.00 0.00 0.00 82 1017.0
20260502064547 45 212 0.0 0.0 0.00 0.00 0.00 82 1016.6
20260502063040 46 212 0.0 0.0 0.00 0.00 0.00 81 1016.4
20260502061540 47 212 0.0 0.0 0.00 0.00 0.00 81 1016.3
20260502060039 48 212 0.0 0.0 0.00 0.00 0.00 80 1016.2
20260502054538 49 212 0.0 1.0 0.00 0.00 0.00 79 1016.1
20260502053038 50 212 0.0 0.0 0.00 0.00 0.00 79 1016.0
20260502051557 51 212 0.0 0.0 0.00 0.00 0.00 76 1015.8
20260502050036 52 212 0.0 0.0 0.00 0.00 0.00 75 1015.7
20260502044536 53 212 0.0 0.0 0.00 0.00 0.00 74 1015.5
20260502043040 55 212 0.0 0.0 0.00 0.00 0.00 73 1015.4
20260502041535 56 212 0.0 0.0 0.00 0.00 0.00 69 1015.4
20260502040035 57 212 0.0 0.0 0.00 0.00 0.00 67 1015.1
20260502034543 60 212 0.0 0.0 0.00 0.00 0.00 65 1014.9
20260502033047 61 212 0.0 0.0 0.00 0.00 0.00 62 1014.8
20260502031540 63 212 0.0 0.0 0.00 0.00 0.00 58 1014.6
20260502030033 65 212 0.0 0.0 0.00 0.00 0.00 54 1014.5
20260502024533 66 212 0.0 0.0 0.00 0.00 0.00 51 1014.4
20260502023033 68 212 0.0 0.0 0.00 0.00 0.00 51 1014.4
20260502021531 69 212 0.0 0.0 0.00 0.00 0.00 47 1014.2
20260502020031 71 213 0.0 0.0 0.00 0.00 0.00 46 1014.2
20260502014532 71 212 0.0 0.0 0.00 0.00 0.00 41 1014.2
20260502013029 73 212 0.0 0.0 0.00 0.00 0.00 36 1014.2
20260502011530 73 212 0.0 0.0 0.00 0.00 0.00 34 1014.2
20260502010028 73 212 0.0 0.0 0.00 0.00 0.00 34 1014.2
20260502004527 74 212 0.0 1.0 0.00 0.00 0.00 32 1014.2
20260502003026 75 207 0.0 1.0 0.00 0.00 0.00 31 1014.1
20260502001525 76 313 0.0 2.0 0.00 0.00 0.00 29 1014.2
20260502000026 76 257 0.0 3.0 0.00 0.00 0.00 29 1014.2
20260501234527 76 292 0.0 2.0 0.00 0.00 0.00 30 1014.2
20260501233023 76 221 1.0 3.0 0.00 0.00 0.00 31 1014.3
20260501231533 76 264 1.0 3.0 0.00 0.00 0.00 31 1014.5
20260501230020 76 221 0.0 2.0 0.00 0.00 0.00 30 1014.6
20260501224517 76 223 0.0 3.0 0.00 0.00 0.00 31 1014.8
20260501223017 76 105 0.0 4.0 0.00 0.00 0.00 32 1015.0
20260501221514 77 240 2.0 4.0 0.00 0.00 0.00 32 1015.0